Regional Weather Roundup
Issued by NWS Glasgow, MT

Home | Current Version | Previous Version | Text Only | Print | Product List | Glossary On
Versions: 1 2 3 4 5 6 7 8 9 10 11 12 13 14 15 16 17 18 19 20 21 22 23 24 25 26 27 28
000
ASUS45 KGGW 221815
RWRGGW
HOURLY REGIONAL WEATHER ROUNDUP FOR NORTHEAST MONTANA
NATIONAL WEATHER SERVICE GLASGOW MONTANA
1200 PM MDT TUE AUG 22 2017

NOTE: "FAIR" INDICATES FEW OR NO CLOUDS BELOW 12,000 FEET WITH NO
SIGNIFICANT WEATHER AND/OR OBSTRUCTIONS TO VISISBILITY.

NORTHEAST MONTANA


CITY           SKY/WX    TMP DP  RH WIND       PRES   REMARKS
GLASGOW        SUNNY     78  35  21 VRB7      30.16F
6HR MIN TEMP:  51; 6HR MAX TEMP:  78;

PLENTYWOOD       N/A     75  33  21 SW2         N/A
WOLF POINT     SUNNY     79  35  20 CALM      30.17F
JORDAN           N/A     80  34  19 E9G17     30.15F
WINNETT          N/A     78  32  18 E3          N/A
SIDNEY         SUNNY     75  35  23 SE3       30.19F
GLENDIVE       SUNNY     77  36  22 SE8       30.19F
MALTA            N/A     82  38  20 S5          N/A
SCOBEY           N/A     75  38  26 NE5       30.16F

FORT PECK REPORTS


CITY           SKY/WX    TMP DP  RH WIND       PRES   REMARKS
FORT PECK        N/A     75  45  34 S5          N/A
THE PINES        N/A     79  33  19 SE3         N/A

SOUTHEAST MONTANA


CITY           SKY/WX    TMP DP  RH WIND       PRES   REMARKS
BILLINGS       MOSUNNY   76  40  27 S6        30.18F
MILES CITY     SUNNY     81  37  20 E7        30.15F
BAKER          SUNNY     79  36  21 E9        30.21F
LIVINGSTON     SUNNY     77  35  21 VRB3      30.21F

CENTRAL MONTANA


CITY           SKY/WX    TMP DP  RH WIND       PRES   REMARKS
HAVRE          SUNNY     80  37  21 E7        30.12F
LEWISTOWN      SUNNY     81  35  19 SE10      30.18F
GREAT FALLS    SUNNY     78  34  20 VRB3      30.15F
CUT BANK       SUNNY     76  37  24 VRB3      30.16F
HELENA         SUNNY     75  38  26 CALM      30.17F
BUTTE          SUNNY     75  35  23 CALM      30.26F
BOZEMAN        SUNNY     75  39  27 CALM      30.22F

WESTERN MONTANA


CITY           SKY/WX    TMP DP  RH WIND       PRES   REMARKS
MISSOULA       SUNNY     71  39  31 CALM      30.16F HAZE
KALISPELL      NOT AVBL

NORTH DAKOTA


CITY           SKY/WX    TMP DP  RH WIND       PRES   REMARKS
WILLISTON      SUNNY     75  37  25 SW9       30.18F
DICKINSON      SUNNY     73  38  27 CALM      30.19F
MINOT          SUNNY     75  38  26 NW13G23   30.16F
BISMARCK       SUNNY     75  42  30 NW13      30.20S

SOUTHERN SASKATCHEWAN


CITY           SKY/WX    TMP DP  RH WIND       PRES   REMARKS
REGINA         PTSUNNY   73  34  23 NW5       30.15F
MOOSE JAW      PTSUNNY   75  39  27 SW6       30.14F
ESTEVAN        MOSUNNY   73  36  25 W10       30.17F
SWIFT CURRENT  CLOUDY    75  37  25 W8        30.13F





USA.gov is the U.S. government's official web portal to all federal, state and local government web resources and services.